Weather History for Charlotte, MI

Change the Weather History Date:

Thursday, August 29, 2013

  Actual Average (KLAN) Record (KLAN)
Temperature  
Mean Temperature 72 °F 68 °F  
Max Temperature 85 °F 78 °F 96 °F (1973)
Min Temperature 60 °F 57 °F 26 °F (1863)
Degree Days  
Heating Degree Days 0 1  
Month to date heating degree days 25  
Since 1 June heating degree days 91  
Since 1 July heating degree days 36  
Cooling Degree Days 8 4  
Month to date cooling degree days 159  
Year to date cooling degree days 545  
Since 1 June cooling degree days 504  
Growing Degree Days 22 (Base 50)    
Moisture  
Dew Point 67 °F    
Average Humidity 83    
Maximum Humidity 100    
Minimum Humidity 55    
Precipitation  
Precipitation 0.00 in 0.10 in 2.56 in (1932)
Month to date precipitation 3.01  
Year to date precipitation 20.87  
Snow  
Snow 0.00 in 0.00 in 0.00 in ()
Month to date snowfall 0.0  
Since 1 June snowfall 0.0  
Since 1 July snowfall 0.0  
Snow Depth -    
Sea Level Pressure  
Sea Level Pressure 30.05 in    
Wind  
Wind Speed 1 mph (NE)    
Max Wind Speed 5 mph    
Max Gust Speed -    
Visibility 6 miles    
Events Fog    
T = Trace of Precipitation, MM = Missing Value Source: NWS Daily Summary

Daily Weather History Graph

Daily Weather History Graph

Search for Another Location

Airport:

Trip Planner

Search our weather history database for the weather conditions in past years. The results will help you decide how hot, cold, wet, or windy it might be!

Date:

Astronomy

Aug. 29, 2013 Rise Set
Actual Time 7:01 AM EDT 8:18 PM EDT
Civil Twilight 6:32 AM EDT 8:47 PM EDT
Nautical Twilight 5:56 AM EDT 9:22 PM EDT
Astronomical Twilight 5:19 AM EDT 9:58 PM EDT
Moon 12:48 AM EDT (8/29) 3:50 PM EDT (8/29)
Length of Visible Light 14h 15m
Length of Day
13h 16m
Last Quarter, 38% of the Moon is Illuminated
Aug 29
Last Quarter
Sep 5
New
Sep 12
First Quarter
Sep 19
Full
Sep 26
Last Quarter

Hourly Weather History & Observations

Time (EDT) Temp. Heat Index Dew Point Humidity Pressure Visibility Wind Dir Wind Speed Gust Speed Precip Events Conditions
12:15 AM 65.3 °F - 65.3 °F 100% 30.03 in 2.0 mi Calm Calm - N/A   Clear
12:35 AM 64.9 °F - 64.9 °F 100% 30.03 in 0.2 mi Calm Calm - N/A Fog Fog
12:55 AM 65.5 °F - 65.5 °F 100% 30.03 in 1.8 mi Calm Calm - N/A   Mist
1:15 AM 63.7 °F - 63.7 °F 100% 30.04 in 0.8 mi Calm Calm - N/A   Mist
1:35 AM 64.4 °F - 64.4 °F 100% 30.04 in 0.2 mi Calm Calm - N/A Fog Fog
1:55 AM 64.8 °F - 64.8 °F 100% 30.03 in 5.0 mi Calm Calm - N/A   Clear
2:15 AM 63.3 °F - 63.3 °F 100% 30.04 in 0.2 mi Calm Calm - N/A Fog Fog
2:35 AM 61.5 °F - 61.5 °F 100% 30.04 in 0.2 mi Calm Calm - N/A Fog Fog
2:55 AM 62.8 °F - 62.8 °F 100% 30.04 in 5.0 mi Calm Calm - N/A   Clear
3:15 AM 63.1 °F - 63.1 °F 100% 30.03 in 2.5 mi Calm Calm - N/A   Clear
3:35 AM 63.7 °F - 63.7 °F 100% 30.04 in 2.0 mi Calm Calm - N/A   Clear
3:55 AM 63.0 °F - 63.0 °F 100% 30.04 in 2.5 mi Calm Calm - N/A   Clear
4:16 AM 62.2 °F - 62.2 °F 100% 30.04 in 0.2 mi Calm Calm - N/A Fog Fog
4:35 AM 60.3 °F - 60.3 °F 100% 30.04 in 0.2 mi Calm Calm - N/A Fog Fog
4:56 AM 62.2 °F - 62.2 °F 100% 30.04 in 0.8 mi Calm Calm - N/A   Mist
5:15 AM 63.3 °F - 63.3 °F 100% 30.04 in 1.0 mi Calm Calm - N/A   Mostly Cloudy
5:35 AM 62.6 °F - 62.6 °F 100% 30.05 in 0.5 mi Calm Calm - N/A Fog Fog
5:56 AM 61.3 °F - 61.3 °F 100% 30.05 in 0.2 mi Calm Calm - N/A Fog Fog
6:15 AM 62.6 °F - 62.6 °F 100% 30.06 in 0.2 mi Calm Calm - N/A Fog Fog
6:36 AM 62.6 °F - 62.6 °F 100% 30.06 in 0.2 mi Calm Calm - N/A Fog Fog
6:55 AM 63.0 °F - 63.0 °F 100% 30.07 in 0.2 mi Calm Calm - N/A Fog Fog
7:15 AM 63.5 °F - 63.5 °F 100% 30.07 in 0.2 mi Calm Calm - N/A Fog Fog
7:36 AM 63.5 °F - 63.5 °F 100% 30.08 in 0.2 mi Calm Calm - N/A Fog Fog
7:55 AM 63.5 °F - 63.5 °F 100% 30.09 in 0.2 mi Calm Calm - N/A Fog Fog
8:16 AM 64.2 °F - 64.2 °F 100% 30.09 in 0.5 mi Calm Calm - N/A Fog Fog
8:35 AM 65.3 °F - 65.3 °F 100% 30.09 in 4.0 mi Calm Calm - N/A   Scattered Clouds
8:56 AM 67.3 °F - 67.3 °F 100% 30.09 in 7.0 mi Calm Calm - N/A   Clear
9:15 AM 69.1 °F - 67.3 °F 94% 30.09 in 10.0 mi Calm Calm - N/A   Clear
9:35 AM 70.3 °F - 67.5 °F 91% 30.08 in 10.0 mi East 3.5 mph - N/A   Clear
9:55 AM 72.1 °F - 68.0 °F 87% 30.09 in 10.0 mi Calm Calm - N/A   Clear
10:15 AM 74.1 °F - 68.2 °F 82% 30.09 in 10.0 mi ENE 3.5 mph - N/A   Clear
10:35 AM 75.2 °F - 68.2 °F 79% 30.09 in 10.0 mi ESE 4.6 mph - N/A   Clear
10:55 AM 76.5 °F - 68.2 °F 75% 30.10 in 10.0 mi Calm Calm - N/A   Clear
11:15 AM 77.2 °F - 68.0 °F 73% 30.10 in 10.0 mi Calm Calm - N/A   Clear
11:35 AM 78.1 °F - 67.5 °F 70% 30.10 in 10.0 mi Calm Calm - N/A   Clear
11:55 AM 79.2 °F - 68.2 °F 69% 30.10 in 10.0 mi East 3.5 mph - N/A   Clear
12:15 PM 79.9 °F - 68.4 °F 68% 30.10 in 10.0 mi NNE 3.5 mph - N/A   Clear
12:35 PM 80.4 °F 83.2 °F 68.4 °F 67% 30.10 in 10.0 mi Calm Calm - N/A   Clear
12:55 PM 80.8 °F 83.6 °F 68.5 °F 66% 30.09 in 10.0 mi ENE 3.5 mph - N/A   Clear
1:15 PM 81.7 °F 84.9 °F 68.7 °F 65% 30.08 in 10.0 mi East 4.6 mph - N/A   Clear
1:35 PM 82.2 °F 85.5 °F 68.7 °F 64% 30.07 in 10.0 mi North 3.5 mph - N/A   Clear
1:55 PM 82.4 °F 85.6 °F 68.5 °F 63% 30.07 in 10.0 mi NNE 4.6 mph - N/A   Scattered Clouds
2:15 PM 82.4 °F 85.4 °F 68.4 °F 62% 30.07 in 10.0 mi Calm Calm - N/A   Scattered Clouds
2:35 PM 83.7 °F 87.0 °F 68.4 °F 60% 30.07 in 10.0 mi Calm Calm - N/A   Clear
2:55 PM 83.7 °F 86.7 °F 68.0 °F 59% 30.07 in 10.0 mi Calm Calm - N/A   Clear
3:15 PM 84.4 °F 86.8 °F 66.6 °F 55% 30.07 in 10.0 mi Calm Calm - N/A   Clear
3:35 PM 84.2 °F 87.1 °F 67.6 °F 57% 30.06 in 10.0 mi East 4.6 mph - N/A   Scattered Clouds
3:55 PM 83.5 °F 86.0 °F 66.7 °F 57% 30.06 in 10.0 mi Calm Calm - N/A   Clear
4:15 PM 84.2 °F 87.1 °F 67.6 °F 57% 30.05 in 10.0 mi NW 3.5 mph - N/A   Clear
4:35 PM 82.9 °F 85.2 °F 66.4 °F 57% 30.05 in 10.0 mi Calm Calm - N/A   Clear
4:55 PM 83.8 °F 86.0 °F 65.8 °F 55% 30.04 in 10.0 mi Calm Calm - N/A   Clear
5:15 PM 85.5 °F 88.5 °F 67.8 °F 55% 30.04 in 10.0 mi Calm Calm - N/A   Clear
5:35 PM 84.6 °F 88.2 °F 68.7 °F 59% 30.04 in 7.0 mi NE 4.6 mph - N/A   Mostly Cloudy
5:55 PM 84.2 °F 87.3 °F 68.0 °F 58% 30.03 in 10.0 mi ENE 3.5 mph - N/A   Mostly Cloudy
6:15 PM 82.8 °F 86.0 °F 68.5 °F 62% 30.03 in 10.0 mi Calm Calm - N/A   Scattered Clouds
6:35 PM 83.5 °F 86.7 °F 68.2 °F 60% 30.03 in 10.0 mi Calm Calm - N/A   Clear
6:55 PM 83.3 °F 86.2 °F 67.5 °F 59% 30.03 in 10.0 mi Calm Calm - N/A   Clear
7:15 PM 82.2 °F 85.5 °F 68.9 °F 64% 30.03 in 10.0 mi North 3.5 mph - N/A   Clear
7:35 PM 80.6 °F 83.9 °F 69.8 °F 70% 30.03 in 10.0 mi North 3.5 mph - N/A   Clear
7:55 PM 80.1 °F 83.0 °F 69.6 °F 70% 30.04 in 10.0 mi Calm Calm - N/A   Clear
8:15 PM 77.4 °F - 70.0 °F 78% 30.04 in 10.0 mi Calm Calm - N/A   Clear
8:35 PM 74.7 °F - 70.0 °F 85% 30.04 in 10.0 mi Calm Calm - N/A   Clear
8:55 PM 73.9 °F - 70.0 °F 87% 30.04 in 10.0 mi Calm Calm - N/A   Clear
9:15 PM 72.7 °F - 69.4 °F 90% 30.04 in 10.0 mi Calm Calm - N/A   Clear
9:35 PM 70.9 °F - 69.8 °F 96% 30.04 in 10.0 mi Calm Calm - N/A   Clear
9:55 PM 70.7 °F - 69.8 °F 97% 30.03 in 7.0 mi Calm Calm - N/A   Clear
10:15 PM 70.5 °F - 68.9 °F 95% 30.03 in 7.0 mi Calm Calm - N/A   Clear
10:35 PM 70.7 °F - 69.8 °F 97% 30.02 in 7.0 mi Calm Calm - N/A   Clear
10:55 PM 68.4 °F - 68.2 °F 99% 30.01 in 5.0 mi Calm Calm - N/A   Clear
11:15 PM 69.3 °F - 68.9 °F 99% 30.01 in 5.0 mi Calm Calm - N/A   Clear
11:35 PM 69.3 °F - 69.1 °F 99% 30.01 in 2.5 mi Calm Calm - N/A   Clear
11:55 PM 67.5 °F - 67.3 °F 99% 30.01 in 3.0 mi Calm Calm - N/A   Clear